{"data":{"norad_id":66647,"epoch":"2026-05-25T03:18:10.615104Z","epoch_age_seconds":63471,"freshness":"FRESH","line1":"1 66647U 25273A   26145.13762286  .00000018  00000+0  55749-4 0  9993","line2":"2 66647  82.4997 184.8529 0010421 266.6851  93.3037 12.42898775 22438","mean_motion":12.42898775,"eccentricity":0.0010421,"inclination_deg":82.4997,"raan_deg":184.8529,"arg_perigee_deg":266.6851,"mean_anomaly_deg":93.3037,"bstar":5.5749e-5,"rev_number":2243,"period_min":115.85818804914,"perigee_km":1486.1348998884,"apogee_km":1502.5427139652,"semimajor_km":7872.4758069268,"source":"CELESTRAK","updated_at":"2026-05-25T13:38:06.378397Z"}}